Location: Владивосток
(43.1151°N, 131.8856°E)
Time: 15:51:08
(UTC+10:00)

CAS-6 - Visible Passes

Search period start: 26 June 2022 00:00
Search period end: 06 July 2022 00:00
Orbit: 613 x 635 km, 97.9° (Epoch: 25 June)

Date Brightness Start Highest point End Pass type
(mag) Time Alt. Az. Time Alt. Az. Time Alt. Az.
26 Jun ? 00:55:25 11° WSW 00:56:19 11° W 00:57:43 10° WNW visible
26 Jun ? 22:00:55 10° E 22:02:32 12° ENE 22:04:09 10° NE visible
26 Jun ? 23:36:49 45° S 23:38:06 76° WSW 23:42:30 10° NNW visible
27 Jun ? 22:18:13 11° ESE 22:20:45 18° ENE 22:23:39 10° NNE visible
27 Jun ? 23:55:27 38° SW 23:56:34 47° W 00:00:48 10° NNW visible
28 Jun ? 22:36:51 18° ESE 22:39:00 26° ENE 22:42:38 10° NNE visible
29 Jun ? 00:14:06 27° WSW 00:15:05 30° W 00:18:56 10° NW visible
29 Jun ? 22:55:30 26° ESE 22:57:19 39° ENE 23:01:23 10° N visible
30 Jun ? 00:32:45 18° WSW 00:33:39 19° W 00:36:50 10° NW visible
30 Jun ? 23:14:09 37° SE 23:15:40 62° ENE 23:19:59 10° N visible
01 Jul ? 00:51:23 12° WSW 00:52:15 12° W 00:54:08 10° WNW visible
01 Jul ? 21:57:32 10° ENE 21:58:33 11° ENE 21:59:35 10° NE visible
01 Jul ? 23:32:48 46° S 23:34:04 83° WSW 23:38:27 10° NNW visible
02 Jul ? 22:14:12 10° E 22:16:45 16° ENE 22:19:25 10° NNE visible
02 Jul ? 23:51:27 41° SW 23:52:31 52° W 23:56:47 10° NNW visible
03 Jul ? 22:32:51 17° ESE 22:35:00 24° ENE 22:38:28 10° NNE visible
04 Jul ? 00:10:05 30° WSW 00:11:01 33° W 00:14:57 10° NNW visible
04 Jul ? 22:51:30 25° ESE 22:53:17 36° ENE 22:57:15 10° N visible
05 Jul ? 00:28:44 20° WSW 00:29:33 21° W 00:32:54 10° NW visible
05 Jul ? 23:10:09 36° SE 23:11:37 56° ENE 23:15:53 10° N visible
